Worcester, MA

12:58 PM EDT on April 30, 2017 (GMT -0400)
Worcester Regional

Weather History for KORH - December, 2011

Change the Weather History Date:

Saturday, December 24, 2011

  Actual Average Record
Temperature  
Mean Temperature 24 °F 27 °F  
Max Temperature 30 °F 34 °F 65 °F (2015)
Min Temperature 18 °F 20 °F -6 °F (1943)
Degree Days  
Heating Degree Days 41 38  
Month to date heating degree days 661 826  
Since 1 July heating degree days 1674 2228  
Cooling Degree Days 0 0  
Month to date cooling degree days 0 0  
Year to date cooling degree days 638 471  
Moisture  
Dew Point 8 °F    
Average Humidity 50    
Maximum Humidity 75    
Minimum Humidity 25    
Precipitation  
Precipitation 0.00 in 0.12 in 1.50 in (1994)
Month to date precipitation 4.22 3.03  
Year to date precipitation 66.21 47.28  
Sea Level Pressure  
Sea Level Pressure 30.35 in    
Wind  
Wind Speed 6 mph (NNW)    
Max Wind Speed 13 mph    
Max Gust Speed 17 mph    
Visibility 10 miles    
Events      
T = Trace of Precipitation, MM = Missing Value Source: NWS Daily Summary

Daily Weather History Graph

Daily Weather History Graph

Search for Another Location

Airport or City:

Trip Planner

Search our weather history database for the weather conditions in past years. The results will help you decide how hot, cold, wet, or windy it might be!

Date:

Astronomy

Dec. 24, 2011 Rise Set
Actual Time 7:14 AM EST 4:19 PM EST
Civil Twilight 6:42 AM EST 4:51 PM EST
Nautical Twilight 6:06 AM EST 5:27 PM EST
Astronomical Twilight 5:32 AM EST 6:01 PM EST
Moon 6:59 AM EST (12/24) 4:29 PM EST (12/24)
Length of Visible Light 10h 09m
Length of Day
9h 05m
Waning Crescent, 0% of the Moon is Illuminated
Dec 24
Waning Crescent
Dec 24
New
Jan 1
First Quarter
Jan 9
Full
Jan 16
Last Quarter

Hourly Weather History & Observations

Time (EST) Temp. Windchill Dew Point Humidity Pressure Visibility Wind Dir Wind Speed Gust Speed Precip Events Conditions
12:54 AM 28.9 °F 21.1 °F 21.0 °F 72% 30.17 in 10.0 mi NNW 8.1 mph - N/A   Overcast
1:54 AM 28.0 °F 20.8 °F 18.0 °F 66% 30.20 in 10.0 mi North 6.9 mph - N/A   Overcast
2:23 AM 26.6 °F 19.1 °F 17.6 °F 69% 30.16 in 10.0 mi NNW 6.9 mph - N/A   Scattered Clouds
2:54 AM 26.6 °F 19.1 °F 17.6 °F 69% 30.17 in 10.0 mi North 6.9 mph 17.3 mph N/A   Clear
3:54 AM 25.0 °F 18.1 °F 16.0 °F 69% 30.22 in 10.0 mi North 5.8 mph - N/A   Clear
4:54 AM 25.0 °F 18.1 °F 16.0 °F 69% 30.24 in 10.0 mi NNW 5.8 mph - N/A   Clear
5:54 AM 25.0 °F 15.5 °F 16.0 °F 69% 30.27 in 10.0 mi NW 9.2 mph - N/A   Clear
6:54 AM 24.1 °F 18.2 °F 15.1 °F 69% 30.30 in 10.0 mi NNW 4.6 mph - N/A   Clear
7:54 AM 23.0 °F 15.8 °F 15.1 °F 72% 30.33 in 10.0 mi NNW 5.8 mph - N/A   Clear
8:54 AM 23.0 °F 11.7 °F 14.0 °F 68% 30.36 in 10.0 mi NW 11.5 mph - N/A   Partly Cloudy
9:12 AM 24.8 °F 16.9 °F 14.0 °F 64% 30.32 in 10.0 mi NNW 6.9 mph - N/A   Mostly Cloudy
9:27 AM 23.0 °F 12.4 °F 14.0 °F 68% 30.34 in 10.0 mi NW 10.4 mph - N/A   Scattered Clouds
9:54 AM 24.1 °F 15.2 °F 12.9 °F 62% 30.39 in 10.0 mi NNW 8.1 mph - N/A   Clear
10:54 AM 24.1 °F 16.0 °F 10.9 °F 57% 30.38 in 10.0 mi NW 6.9 mph - N/A   Clear
11:54 AM 26.1 °F 17.6 °F 9.0 °F 49% 30.38 in 10.0 mi North 8.1 mph - N/A   Clear
12:54 PM 27.0 °F 18.7 °F 6.1 °F 41% 30.38 in 10.0 mi NNW 8.1 mph - N/A   Clear
1:54 PM 28.0 °F 19.3 °F 3.9 °F 36% 30.37 in 10.0 mi NNE 9.2 mph - N/A   Clear
2:54 PM 27.0 °F 18.0 °F -0.0 °F 31% 30.40 in 10.0 mi NW 9.2 mph - N/A   Clear
3:54 PM 26.1 °F 16.8 °F -5.1 °F 26% 30.41 in 10.0 mi NNW 9.2 mph - N/A   Clear
4:54 PM 24.1 °F 16.0 °F -0.9 °F 34% 30.44 in 10.0 mi NW 6.9 mph - N/A   Clear
5:54 PM 23.0 °F 17.0 °F -0.9 °F 35% 30.46 in 10.0 mi North 4.6 mph - N/A   Clear
6:54 PM 21.9 °F 15.7 °F -0.0 °F 38% 30.46 in 10.0 mi NNE 4.6 mph - N/A   Clear
7:54 PM 21.0 °F 16.2 °F 1.0 °F 42% 30.46 in 10.0 mi ENE 3.5 mph - N/A   Clear
8:54 PM 19.0 °F 12.3 °F -0.0 °F 43% 30.44 in 10.0 mi ENE 4.6 mph - N/A   Clear
9:54 PM 19.0 °F - -0.0 °F 43% 30.47 in 10.0 mi Calm Calm - N/A   Clear
10:54 PM 18.0 °F 12.7 °F -0.9 °F 44% 30.48 in 10.0 mi NNE 3.5 mph - N/A   Clear
11:54 PM 18.0 °F 12.7 °F -0.9 °F 44% 30.47 in 10.0 mi NNE 3.5 mph - N/A   Clear